Regional Weather Roundup
Issued by NWS

Home | Current Version | Previous Version | Text Only | Print | Product List | Glossary Off
Versions: 1 2 3 4 5 6 7 8 9 10 11 12 13 14 15 16 17 18 19 20 21 22 23 24 25 26 27 28 29 30 31 32 33 34 35 36 37 38 39 40 41 42 43 44 45 46 47 48 49 50

000
ASUS43 KDMX 231501
RWRIA

WEATHER ROUNDUP FOR IOWA
NATIONAL WEATHER SERVICE DES MOINES IA
1000 AM CDT TUE MAY 23 2017

NOTE: "FAIR" INDICATES FEW OR NO CLOUDS BELOW 12,000 FEET WITH NO
SIGNIFICANT WEATHER AND/OR OBSTRUCTIONS TO VISIBILITY.

* - THESE STATIONS ARE NOT NWS STATIONS...THUS NOT UNDER NWS
QUALITY CONTROL.  THEY ALSO DO NOT REPORT WEATHER SUCH
AS PRECIPITATION OR FOG.

IAZ001>003-012>014-020>022-031>034-043>046-231600-
   NORTHWEST IOWA

CITY           SKY/WX    TMP DP  RH WIND       PRES   REMARKS
CARROLL *      CLOUDY    54  46  76 NW15      29.86S
CHEROKEE *     CLOUDY    51  47  86 NW12      29.87S
DENISON *      CLOUDY    52  46  82 NW14      29.89F
LE MARS *      CLOUDY    50  45  81 N9G18     29.90S
ORANGE CITY *  CLOUDY    50  45  81 N12       29.88F
SHELDON *      LGT RAIN  50  46  87 NW16        N/A
SIOUX CITY     CLOUDY    54  46  74 NW17      29.90S
SPENCER        CLOUDY    53  46  77 N15       29.86S
STORM LAKE *     N/A     50  45  81 NW14      29.86S
$$

IAZ055>058-069>071-079>083-090>094-231600-
   SOUTHWEST IOWA

CITY           SKY/WX    TMP DP  RH WIND       PRES   REMARKS
ATLANTIC *     MOSUNNY   54  45  71 NW15G21   29.88S
AUDUBON *      PTSUNNY   54  46  76 NW9       29.88F
CLARINDA *     SUNNY     57  45  62 N15G22    29.91F
COUNCIL BLFS * MOSUNNY   55  46  71 NW10G17   29.90S
CRESTON *      SUNNY     55  46  71 NW20      29.87F
HARLAN  *      LGT RAIN  52  48  87 NW16      29.92S
LAMONI         SUNNY     58  49  72 NW13G20   29.85F
RED OAK *      MOSUNNY   59  45  58 NW17G23   29.89F
SHENANDOAH *   SUNNY     59  46  63 N14       29.91S
$$

IAZ047>049-059>061-072>074-084-231600-
   CENTRAL IOWA

CITY           SKY/WX    TMP DP  RH WIND       PRES   REMARKS
AMES           PTSUNNY   55  49  80 NW10      29.83S
ANKENY *       PTSUNNY   55  48  76 NW9G15    29.85S
BOONE *        PTSUNNY   54  48  82 NW10      29.83S
DES MOINES     PTSUNNY   59  49  69 NW13      29.84S
GRINNELL*      MOSUNNY   55  49  79 NW9       29.84S
MARSHALLTOWN   CLOUDY    57  50  77 NW8       29.81S
NEWTON *       PTSUNNY   57  48  72 NW9G15    29.82F
PELLA *        PTSUNNY   57  48  72 N8        29.84F
PERRY *        PTSUNNY   56  49  78 NW13G18   29.85F
$$

IAZ004>006-015-016-023>025-035-036-231600-
   NORTH CENTRAL IOWA

CITY           SKY/WX    TMP DP  RH WIND       PRES   REMARKS
ALGONA *       PTSUNNY   50  48  93 NW8       29.84F
CLARION *      CLOUDY    50  48  93 NW9       29.84S
ESTHERVILLE    CLOUDY    48  47  96 N13       29.84F
FORT DODGE *   CLOUDY    52  45  76 N7        29.85S
MASON CITY     CLOUDY    50  45  83 NW9       29.84S
FOREST CITY *  CLOUDY    50  41  71 N8        29.83S
WEBSTER CITY * CLOUDY    54  48  82 NW14      29.82S
IOWA FALLS *   CLOUDY    55  49  79 NW12      29.84S
$$

IAZ007>011-017>019-026>030-037>042-050>054-066-231600-
   NORTHEAST IOWA

CITY           SKY/WX    TMP DP  RH WIND       PRES   REMARKS
CEDAR RAPIDS   CLOUDY    54  52  93 NW12      29.79S
CHARLES CITY * CLOUDY    55  52  88 NW12      29.81S
CLINTON *      CLOUDY    57  53  86 W9        29.80R
DECORAH *      LGT RAIN  50  50 100 W5        29.77F
DUBUQUE        CLOUDY    55  51  86 W7        29.78S
MONTICELLO *   CLOUDY    55  52  88 NW9       29.79R
OELWEIN *      CLOUDY    54  52  94 NW10      29.79S
WATERLOO       CLOUDY    56  49  77 N12       29.79F
$$

IAZ064-065-067-068-078-231600-
   EAST CENTRAL IOWA

CITY           SKY/WX    TMP DP  RH WIND       PRES   REMARKS
DAVENPORT      CLOUDY    57  53  86 SW8       29.79S
IOWA CITY      CLOUDY    58  51  78 NW12      29.81R
MT. PLEASANT * CLOUDY    56  53  86 W7        29.81R
MUSCATINE *    CLOUDY    59  54  82 N6        29.80S
QUAD CITIES    CLOUDY    59  53  80 W7        29.78S
$$

IAZ062-063-075>077-085>089-095>099-231600-
   SOUTHEAST IOWA

CITY           SKY/WX    TMP DP  RH WIND       PRES   REMARKS
BURLINGTON     LGT RAIN  59  56  89 W6        29.79S
FAIRFIELD *    CLOUDY    55  52  88 NW10G16   29.81S
FORT MADISON * CLOUDY    57  55  94 W6        29.81S
KEOKUK *       CLOUDY    57  55  94 NW9       29.80R
OSKALOOSA *    PTSUNNY   55  49  81 NW13      29.83S
OTTUMWA        CLOUDY    55  51  86 NW15      29.82S
WASHINGTON *   CLOUDY    57  52  82 NW13      29.82R
$$

ABBREVIATIONS USED IN REMARKS
   TC - TEMPERATURES IN CELSIUS
  WCI - WIND CHILL INDEX
   HX - HEAT INDEX
  VSB - VISIBILITY
$$





USA.gov is the U.S. government's official web portal to all federal, state and local government web resources and services.